Coleman, TX

6:24 PM CDT on July 25, 2017 (GMT -0500)
Coleman Municipal

Weather History for KCOM - July, 2013

Change the Weather History Date:

Monday, July 15, 2013

  Actual Average (KABI) Record (KABI)
Temperature  
Mean Temperature 67 °F -  
Max Temperature 71 °F 93 °F 109 °F (1978)
Min Temperature 63 °F 70 °F 59 °F (1926)
Cooling Degree Days 2    
Growing Degree Days 17 (Base 50)    
Moisture  
Dew Point 65 °F    
Average Humidity 93    
Maximum Humidity 95    
Minimum Humidity 88    
Precipitation  
Precipitation 3.16 in - - ()
Sea Level Pressure  
Sea Level Pressure 30.03 in    
Wind  
Wind Speed 10 mph (ENE)    
Max Wind Speed 15 mph    
Max Gust Speed 16 mph    
Visibility 8 miles    
Events Rain , Thunderstorm    
Averages and records for this station are not official NWS values.
T = Trace of Precipitation, MM = Missing Value Source: NWS Daily Summary

Daily Weather History Graph

Daily Weather History Graph

Search for Another Location

Airport or City:

Trip Planner

Search our weather history database for the weather conditions in past years. The results will help you decide how hot, cold, wet, or windy it might be!

Date:

Astronomy

Jul. 15, 2013 Rise Set
Actual Time 6:42 AM CDT 8:44 PM CDT
Civil Twilight 6:15 AM CDT 9:11 PM CDT
Nautical Twilight 5:41 AM CDT 9:45 PM CDT
Astronomical Twilight 5:05 AM CDT 10:20 PM CDT
Moon 1:33 PM CDT (7/15) 12:25 AM CDT (7/15)
Length of Visible Light 14h 56m
Length of Day
14h 01m
Waxing Crescent, 45% of the Moon is Illuminated
Jul 15
Waxing Crescent
Jul 15
First Quarter
Jul 22
Full
Jul 29
Last Quarter
Aug 6
New

Hourly Weather History & Observations

Time (CDT) Temp. Dew Point Humidity Pressure Visibility Wind Dir Wind Speed Gust Speed Precip Events Conditions
12:15 AM 67.1 °F 64.8 °F 92% 29.97 in 10.0 mi ENE 12.7 mph - N/A   Overcast
12:35 AM 67.1 °F 64.4 °F 91% 30.00 in 10.0 mi NE 13.8 mph - N/A Rain Light Rain
12:55 AM 66.9 °F 64.6 °F 92% 30.00 in 3.0 mi ENE 11.5 mph - 0.14 in Rain Heavy Rain
1:15 AM 66.2 °F 64.4 °F 94% 29.99 in 4.0 mi East 11.5 mph - 0.12 in Rain , Thunderstorm Heavy Thunderstorms and Rain
1:35 AM 66.0 °F 63.9 °F 93% 29.99 in 4.0 mi ENE 13.8 mph - 0.23 in Rain Heavy Rain
1:55 AM 65.5 °F 63.5 °F 93% 30.03 in 2.5 mi NNE 13.8 mph - 0.44 in Rain Heavy Rain
2:15 AM 64.2 °F 62.1 °F 93% 30.01 in 2.5 mi ENE 9.2 mph - 0.29 in Rain , Thunderstorm Heavy Thunderstorms and Rain
2:35 AM 63.7 °F 61.9 °F 94% 30.01 in 5.0 mi ENE 12.7 mph - 0.38 in Rain Rain
2:55 AM 63.5 °F 61.7 °F 94% 30.03 in 5.0 mi NE 10.4 mph - 0.47 in Rain Heavy Rain
3:15 AM 63.5 °F 61.7 °F 94% 30.02 in 7.0 mi NE 10.4 mph - 0.06 in Rain Heavy Rain
3:35 AM 63.5 °F 61.7 °F 94% 30.01 in 7.0 mi ENE 8.1 mph - 0.12 in Rain Heavy Rain
3:55 AM 63.5 °F 61.9 °F 94% 30.01 in 5.0 mi ENE 9.2 mph - 0.20 in Rain Heavy Rain
4:15 AM 63.7 °F 62.1 °F 94% 30.01 in 5.0 mi ENE 11.5 mph - 0.05 in Rain Rain
4:35 AM 63.7 °F 62.1 °F 94% 30.01 in 7.0 mi ENE 9.2 mph - 0.14 in Rain Light Rain
4:55 AM 63.9 °F 62.1 °F 94% 30.01 in 10.0 mi East 10.4 mph - 0.16 in Rain Light Rain
5:15 AM 63.9 °F 61.9 °F 93% 30.01 in 10.0 mi NE 6.9 mph - 0.01 in Rain Rain
5:35 AM 63.9 °F 61.9 °F 93% 30.01 in 4.0 mi NE 6.9 mph - 0.07 in Rain Heavy Rain
5:55 AM 63.9 °F 62.1 °F 94% 30.01 in 5.0 mi NE 8.1 mph - 0.14 in Rain Heavy Rain
6:15 AM 63.7 °F 62.1 °F 94% 30.03 in 5.0 mi NNE 5.8 mph - 0.08 in Rain Heavy Rain
6:35 AM 63.9 °F 62.2 °F 94% 30.03 in 10.0 mi NNE 6.9 mph - 0.09 in Rain Rain
6:55 AM 63.7 °F 62.1 °F 94% 30.02 in 10.0 mi NNE 9.2 mph - 0.12 in Rain Rain
7:15 AM 63.7 °F 62.1 °F 94% 30.02 in 10.0 mi NNE 9.2 mph - N/A   Light Drizzle
7:35 AM 63.9 °F 62.2 °F 94% 30.02 in 7.0 mi NE 10.4 mph - 0.02 in Rain Rain
7:55 AM 63.9 °F 62.2 °F 94% 30.01 in 7.0 mi NE 8.1 mph - 0.05 in Rain Rain
8:15 AM 64.0 °F 62.6 °F 95% 30.03 in 7.0 mi NNE 9.2 mph - 0.04 in Rain Rain
8:35 AM 64.4 °F 62.6 °F 94% 30.03 in 10.0 mi NNE 8.1 mph - 0.05 in Rain Light Rain
8:55 AM 64.4 °F 62.6 °F 94% 30.03 in 10.0 mi NNE 8.1 mph - 0.06 in Rain Rain
9:15 AM 64.8 °F 63.0 °F 94% 30.03 in 10.0 mi NNE 8.1 mph - 0.02 in Rain Rain
9:35 AM 64.9 °F 63.0 °F 93% 30.04 in 10.0 mi NNE 8.1 mph - 0.04 in Rain Light Rain
9:55 AM 65.3 °F 63.3 °F 93% 30.04 in 10.0 mi NE 8.1 mph - 0.05 in Rain Rain
10:15 AM 65.5 °F 63.5 °F 93% 30.04 in 10.0 mi NE 6.9 mph - 0.01 in Rain Rain
10:35 AM 66.0 °F 64.0 °F 93% 30.05 in 7.0 mi NNE 9.2 mph - 0.04 in Rain Rain
10:55 AM 66.2 °F 64.4 °F 94% 30.05 in 10.0 mi NNE 8.1 mph - 0.06 in Rain Rain
11:15 AM 66.4 °F 64.4 °F 93% 30.05 in 7.0 mi NE 8.1 mph - 0.02 in Rain Rain
11:35 AM 66.7 °F 64.6 °F 93% 30.05 in 10.0 mi NE 9.2 mph - 0.04 in Rain Light Rain
11:55 AM 67.1 °F 64.8 °F 92% 30.05 in 10.0 mi NNE 9.2 mph - 0.05 in Rain Light Rain
12:15 PM 67.3 °F 64.9 °F 92% 30.05 in 10.0 mi NNE 9.2 mph - 0.01 in Rain Light Rain
12:35 PM 68.0 °F 65.7 °F 92% 30.05 in 10.0 mi NE 8.1 mph - 0.03 in Rain Rain
12:55 PM 68.0 °F 65.5 °F 92% 30.05 in 7.0 mi NE 9.2 mph - 0.06 in Rain Light Rain
1:15 PM 68.7 °F 66.0 °F 91% 30.05 in 10.0 mi NE 9.2 mph - 0.01 in Rain Rain
1:35 PM 68.9 °F 66.0 °F 90% 30.04 in 10.0 mi NE 9.2 mph - 0.02 in Rain Light Rain
1:55 PM 69.3 °F 66.4 °F 91% 30.04 in 10.0 mi NE 8.1 mph - 0.03 in Rain Rain
2:15 PM 69.8 °F 66.9 °F 91% 30.04 in 10.0 mi NE 8.1 mph - N/A Rain Light Rain
2:35 PM 70.0 °F 66.7 °F 89% 30.03 in 10.0 mi NE 9.2 mph - N/A   Light Drizzle
2:55 PM 70.7 °F 67.1 °F 88% 30.03 in 10.0 mi ENE 9.2 mph - N/A   Overcast
3:15 PM 70.7 °F 67.3 °F 89% 30.03 in 10.0 mi ENE 9.2 mph - N/A   Overcast
3:35 PM 70.7 °F 67.3 °F 89% 30.02 in 10.0 mi ENE 9.2 mph - N/A   Overcast
3:55 PM 70.7 °F 67.6 °F 90% 30.01 in 7.0 mi NE 8.1 mph - N/A   Drizzle
4:15 PM 70.7 °F 68.0 °F 91% 30.01 in 4.0 mi NE 8.1 mph - 0.05 in Rain Heavy Rain
4:35 PM 70.2 °F 68.2 °F 93% 30.01 in 2.5 mi ENE 10.4 mph - 0.24 in Rain Heavy Rain
4:55 PM 70.5 °F 68.0 °F 92% 30.00 in 10.0 mi East 5.8 mph - 0.28 in Rain Light Rain
5:15 PM 70.9 °F 68.5 °F 92% 30.00 in 10.0 mi SE 10.4 mph 16.1 mph N/A   Overcast
5:35 PM 71.6 °F 68.2 °F 89% 30.00 in 10.0 mi SE 15.0 mph - N/A   Overcast
5:55 PM 71.6 °F 67.8 °F 88% 30.00 in 10.0 mi SE 15.0 mph - N/A   Overcast
6:15 PM 71.6 °F 68.0 °F 88% 30.00 in 10.0 mi SE 10.4 mph - N/A Rain Light Rain
6:35 PM 71.1 °F 68.2 °F 91% 29.99 in 10.0 mi ESE 11.5 mph - N/A   Light Drizzle
6:55 PM 70.9 °F 68.5 °F 92% 30.00 in 5.0 mi SE 12.7 mph 16.1 mph 0.01 in Rain Rain
7:15 PM 70.7 °F 68.2 °F 92% 30.00 in 10.0 mi SSE 12.7 mph - N/A   Drizzle
7:35 PM 69.8 °F 67.5 °F 92% 30.01 in 7.0 mi South 10.4 mph - 0.01 in Rain Rain
7:55 PM 68.9 °F 66.7 °F 93% 30.03 in 3.0 mi SSW 5.8 mph - 0.07 in Rain Heavy Rain
8:15 PM 68.4 °F 66.4 °F 93% 30.03 in 3.0 mi SSW 3.5 mph - 0.05 in Rain Rain
8:35 PM 68.4 °F 66.6 °F 94% 30.04 in 7.0 mi Calm Calm - 0.07 in Rain Rain
8:55 PM 68.2 °F 66.2 °F 93% 30.05 in 7.0 mi Calm Calm - 0.09 in Rain Rain
9:15 PM 68.4 °F 66.4 °F 93% 30.05 in 10.0 mi Calm Calm - 0.01 in Rain Light Rain
9:35 PM 68.4 °F 66.6 °F 94% 30.06 in 7.0 mi South 3.5 mph - 0.02 in Rain Rain
9:55 PM 68.4 °F 66.6 °F 94% 30.06 in 7.0 mi South 3.5 mph - 0.05 in Rain Rain
10:15 PM 68.9 °F 66.7 °F 93% 30.07 in 10.0 mi Calm Calm - N/A Rain Light Rain
10:35 PM 68.9 °F 66.9 °F 93% 30.08 in 7.0 mi Calm Calm - 0.01 in Rain Rain
10:55 PM 68.5 °F 66.6 °F 93% 30.08 in 5.0 mi Calm Calm - 0.08 in Rain Rain
11:15 PM 68.9 °F 67.1 °F 94% 30.08 in 5.0 mi WSW 3.5 mph - 0.03 in Rain Rain
11:35 PM 68.9 °F 67.1 °F 94% 30.08 in 3.0 mi SSW 3.5 mph - 0.28 in Rain Heavy Rain
11:55 PM 68.9 °F 67.1 °F 94% 30.08 in 2.5 mi West 5.8 mph - 0.55 in Rain Heavy Rain